| time (UTC) | temp C | wind direction | speed KPH | gust KPH | rain 1hr cm | rain 24hr cm | rain mn cm | humidity % | barometer mb |
| 20260503005734 | 15 | 170 | 1.6 | 3.2 | 0.00 | 0.00 | 0.00 | 41 | 1009.7 |
| 20260503005231 | 15 | 183 | 1.6 | 3.2 | 0.00 | 0.00 | 0.00 | 40 | 1009.8 |
| 20260503004727 | 15 | 241 | 3.2 | 4.8 | 0.00 | 0.00 | 0.00 | 41 | 1009.8 |
| 20260503004226 | 15 | 192 | 3.2 | 3.2 | 0.00 | 0.00 | 0.00 | 40 | 1009.9 |
| 20260503003723 | 15 | 212 | 4.8 | 4.8 | 0.00 | 0.00 | 0.00 | 40 | 1009.9 |
| 20260503003220 | 15 | 192 | 3.2 | 4.8 | 0.00 | 0.00 | 0.00 | 39 | 1009.9 |
| 20260503002716 | 15 | 209 | 1.6 | 4.8 | 0.00 | 0.00 | 0.00 | 40 | 1009.9 |
| 20260503002213 | 15 | 237 | 3.2 | 6.4 | 0.00 | 0.00 | 0.00 | 41 | 1010.0 |
| 20260503001709 | 15 | 249 | 3.2 | 4.8 | 0.00 | 0.00 | 0.00 | 39 | 1010.4 |
| 20260503001206 | 15 | 179 | 4.8 | 6.4 | 0.00 | 0.00 | 0.00 | 39 | 1010.3 |
| 20260503000704 | 15 | 212 | 4.8 | 6.4 | 0.00 | 0.00 | 0.00 | 38 | 1010.3 |
| 20260503000203 | 15 | 234 | 3.2 | 6.4 | 0.00 | 0.00 | 0.00 | 40 | 1010.5 |
| 20260502235657 | 15 | 198 | 3.2 | 4.8 | 0.00 | 0.00 | 0.00 | 39 | 1010.3 |
| 20260502235155 | 15 | 170 | 1.6 | 4.8 | 0.00 | 0.00 | 0.00 | 38 | 1010.5 |
| 20260502234651 | 15 | 181 | 1.6 | 4.8 | 0.00 | 0.00 | 0.00 | 38 | 1010.5 |
| 20260502234149 | 16 | 182 | 4.8 | 4.8 | 0.00 | 0.00 | 0.00 | 38 | 1010.7 |
| 20260502233645 | 16 | 231 | 4.8 | 6.4 | 0.00 | 0.00 | 0.00 | 39 | 1010.5 |
| 20260502233141 | 16 | 174 | 1.6 | 1.6 | 0.00 | 0.00 | 0.00 | 39 | 1010.7 |
| 20260502232637 | 16 | 185 | 4.8 | 4.8 | 0.00 | 0.00 | 0.00 | 37 | 1010.7 |
| 20260502232135 | 16 | 197 | 3.2 | 3.2 | 0.00 | 0.00 | 0.00 | 38 | 1010.9 |
| 20260502231631 | 16 | 209 | 1.6 | 4.8 | 0.00 | 0.00 | 0.00 | 39 | 1010.9 |
| 20260502231130 | 16 | 175 | 1.6 | 6.4 | 0.00 | 0.00 | 0.00 | 38 | 1011.0 |
| 20260502230627 | 16 | 238 | 6.4 | 11.3 | 0.00 | 0.00 | 0.00 | 37 | 1011.0 |
| 20260502230126 | 16 | 190 | 3.2 | 9.7 | 0.00 | 0.00 | 0.00 | 37 | 1011.0 |
| 20260502225620 | 16 | 191 | 3.2 | 6.4 | 0.00 | 0.00 | 0.00 | 36 | 1011.0 |
| 20260502225118 | 16 | 268 | 6.4 | 12.9 | 0.00 | 0.00 | 0.00 | 37 | 1011.1 |
| 20260502224614 | 16 | 185 | 4.8 | 9.7 | 0.00 | 0.00 | 0.00 | 36 | 1011.2 |
| 20260502224111 | 16 | 162 | 1.6 | 6.4 | 0.00 | 0.00 | 0.00 | 35 | 1011.3 |
| 20260502223609 | 16 | 231 | 6.4 | 6.4 | 0.00 | 0.00 | 0.00 | 38 | 1011.5 |
| 20260502223108 | 16 | 239 | 6.4 | 14.5 | 0.00 | 0.00 | 0.00 | 36 | 1011.5 |
| 20260502222604 | 16 | 223 | 9.7 | 9.7 | 0.00 | 0.00 | 0.00 | 36 | 1011.3 |
| 20260502222100 | 16 | 190 | 6.4 | 9.7 | 0.00 | 0.00 | 0.00 | 38 | 1011.5 |
| 20260502221556 | 15 | 228 | 6.4 | 11.3 | 0.00 | 0.00 | 0.00 | 37 | 1011.6 |
| 20260502221054 | 15 | 250 | 12.9 | 14.5 | 0.00 | 0.00 | 0.00 | 36 | 1011.5 |
| 20260502220549 | 15 | 238 | 6.4 | 11.3 | 0.00 | 0.00 | 0.00 | 37 | 1011.6 |
| 20260502220046 | 15 | 224 | 4.8 | 9.7 | 0.00 | 0.00 | 0.00 | 40 | 1011.7 |
| 20260502215543 | 15 | 264 | 8.0 | 9.7 | 0.00 | 0.00 | 0.00 | 38 | 1011.7 |
| 20260502215040 | 16 | 245 | 11.3 | 16.1 | 0.00 | 0.00 | 0.00 | 35 | 1011.8 |
| 20260502214537 | 16 | 188 | 8.0 | 14.5 | 0.00 | 0.00 | 0.00 | 36 | 1012.0 |
| 20260502214035 | 16 | 247 | 12.9 | 16.1 | 0.00 | 0.00 | 0.00 | 37 | 1011.9 |
| 20260502213531 | 16 | 304 | 3.2 | 9.7 | 0.00 | 0.00 | 0.00 | 35 | 1012.0 |
| 20260502213029 | 16 | 239 | 8.0 | 12.9 | 0.00 | 0.00 | 0.00 | 36 | 1012.0 |
| 20260502212528 | 16 | 250 | 16.1 | 20.9 | 0.00 | 0.00 | 0.00 | 37 | 1012.0 |
| 20260502212025 | 16 | 281 | 16.1 | 20.9 | 0.00 | 0.00 | 0.00 | 36 | 1011.8 |
| 20260502211521 | 16 | 243 | 6.4 | 9.7 | 0.00 | 0.00 | 0.00 | 35 | 1012.1 |
| 20260502211018 | 16 | 213 | 8.0 | 11.3 | 0.00 | 0.00 | 0.00 | 36 | 1012.0 |
| 20260502210515 | 16 | 238 | 6.4 | 11.3 | 0.00 | 0.00 | 0.00 | 34 | 1012.2 |
| 20260502210012 | 16 | 237 | 14.5 | 17.7 | 0.00 | 0.00 | 0.00 | 34 | 1012.4 |
| 20260502205508 | 16 | 309 | 4.8 | 11.3 | 0.00 | 0.00 | 0.00 | 36 | 1012.5 |
| 20260502205006 | 16 | 165 | 6.4 | 14.5 | 0.00 | 0.00 | 0.00 | 35 | 1012.5 |
| 20260502204502 | 15 | 201 | 4.8 | 6.4 | 0.00 | 0.00 | 0.00 | 35 | 1012.7 |
| 20260502204000 | 15 | 285 | 3.2 | 12.9 | 0.00 | 0.00 | 0.00 | 35 | 1012.8 |
| 20260502203457 | 15 | 246 | 8.0 | 14.5 | 0.00 | 0.00 | 0.00 | 37 | 1012.9 |
| 20260502202953 | 15 | 237 | 8.0 | 11.3 | 0.00 | 0.00 | 0.00 | 37 | 1012.9 |
| 20260502202450 | 15 | 214 | 4.8 | 12.9 | 0.00 | 0.00 | 0.00 | 35 | 1013.1 |
| 20260502201949 | 15 | 178 | 3.2 | 6.4 | 0.00 | 0.00 | 0.00 | 35 | 1013.0 |
| 20260502201444 | 15 | 212 | 8.0 | 12.9 | 0.00 | 0.00 | 0.00 | 35 | 1013.2 |
| 20260502200941 | 15 | 254 | 9.7 | 14.5 | 0.00 | 0.00 | 0.00 | 36 | 1013.3 |
| 20260502200437 | 15 | 248 | 9.7 | 11.3 | 0.00 | 0.00 | 0.00 | 35 | 1013.3 |
| 20260502195935 | 16 | 177 | 6.4 | 12.9 | 0.00 | 0.00 | 0.00 | 34 | 1013.2 |
| 20260502195431 | 15 | 252 | 3.2 | 4.8 | 0.00 | 0.00 | 0.00 | 36 | 1013.3 |
| 20260502194928 | 15 | 322 | 1.6 | 9.7 | 0.00 | 0.00 | 0.00 | 38 | 1013.5 |
| 20260502194425 | 15 | 271 | 9.7 | 14.5 | 0.00 | 0.00 | 0.00 | 37 | 1013.5 |
| 20260502193921 | 15 | 254 | 6.4 | 9.7 | 0.00 | 0.00 | 0.00 | 35 | 1013.6 |
| 20260502193418 | 15 | 212 | 4.8 | 11.3 | 0.00 | 0.00 | 0.00 | 35 | 1013.9 |
| 20260502192913 | 15 | 291 | 9.7 | 12.9 | 0.00 | 0.00 | 0.00 | 36 | 1013.9 |
| 20260502192411 | 15 | 318 | 8.0 | 16.1 | 0.00 | 0.00 | 0.00 | 34 | 1013.8 |
| 20260502191908 | 15 | 243 | 6.4 | 9.7 | 0.00 | 0.00 | 0.00 | 34 | 1014.1 |
| 20260502191406 | 15 | 29 | 3.2 | 11.3 | 0.00 | 0.00 | 0.00 | 34 | 1014.1 |
| 20260502190903 | 14 | 337 | 4.8 | 4.8 | 0.00 | 0.00 | 0.00 | 34 | 1014.3 |
| 20260502190400 | 14 | 293 | 6.4 | 11.3 | 0.00 | 0.00 | 0.00 | 36 | 1014.3 |
| 20260502185856 | 15 | 248 | 9.7 | 12.9 | 0.00 | 0.00 | 0.00 | 34 | 1014.4 |
| 20260502185351 | 15 | 224 | 6.4 | 11.3 | 0.00 | 0.00 | 0.00 | 35 | 1014.5 |
| 20260502184849 | 14 | 68 | 6.4 | 11.3 | 0.00 | 0.00 | 0.00 | 39 | 1014.5 |
| 20260502184344 | 14 | 265 | 3.2 | 11.3 | 0.00 | 0.00 | 0.00 | 33 | 1014.5 |
| 20260502183841 | 14 | 249 | 4.8 | 12.9 | 0.00 | 0.00 | 0.00 | 35 | 1014.6 |
| 20260502183337 | 13 | 251 | 9.7 | 11.3 | 0.00 | 0.00 | 0.00 | 34 | 1014.8 |
| 20260502182832 | 14 | 230 | 11.3 | 16.1 | 0.00 | 0.00 | 0.00 | 34 | 1014.9 |
| 20260502182328 | 14 | 180 | 4.8 | 6.4 | 0.00 | 0.00 | 0.00 | 32 | 1014.8 |
| 20260502181824 | 13 | 245 | 8.0 | 11.3 | 0.00 | 0.00 | 0.00 | 33 | 1015.0 |
| 20260502181324 | 13 | 250 | 3.2 | 11.3 | 0.00 | 0.00 | 0.00 | 34 | 1014.9 |
| 20260502180821 | 13 | 179 | 6.4 | 11.3 | 0.00 | 0.00 | 0.00 | 34 | 1015.1 |
| 20260502180318 | 13 | 303 | 4.8 | 9.7 | 0.00 | 0.00 | 0.00 | 33 | 1014.8 |
| 20260502170237 | 13 | 312 | 8.0 | 14.5 | 0.00 | 0.00 | 0.00 | 34 | 1016.0 |
| 20260502164225 | 13 | 239 | 9.7 | 9.7 | 0.00 | 0.00 | 0.00 | 33 | 1016.3 |
| 20260502163720 | 12 | 251 | 1.6 | 9.7 | 0.00 | 0.00 | 0.00 | 34 | 1016.3 |
| 20260502163217 | 12 | 169 | 11.3 | 14.5 | 0.00 | 0.00 | 0.00 | 37 | 1016.4 |
| 20260502162714 | 12 | 200 | 6.4 | 14.5 | 0.00 | 0.00 | 0.00 | 34 | 1016.5 |
| 20260502162210 | 12 | 338 | 4.8 | 9.7 | 0.00 | 0.00 | 0.00 | 35 | 1016.5 |
| 20260502161708 | 12 | 180 | 6.4 | 9.7 | 0.00 | 0.00 | 0.00 | 35 | 1016.7 |
| 20260502161204 | 12 | 341 | 4.8 | 9.7 | 0.00 | 0.00 | 0.00 | 35 | 1016.7 |
| 20260502160702 | 12 | 326 | 16.1 | 20.9 | 0.00 | 0.00 | 0.00 | 36 | 1016.6 |
| 20260502160201 | 12 | 298 | 6.4 | 12.9 | 0.00 | 0.00 | 0.00 | 37 | 1016.8 |
| 20260502152121 | 11 | 252 | 8.0 | 12.9 | 0.00 | 0.00 | 0.00 | 37 | 1017.0 |
| 20260502151618 | 11 | 257 | 11.3 | 12.9 | 0.00 | 0.00 | 0.00 | 36 | 1017.1 |
| 20260502151115 | 11 | 223 | 8.0 | 9.7 | 0.00 | 0.00 | 0.00 | 37 | 1017.1 |
| 20260502150613 | 11 | 310 | 3.2 | 4.8 | 0.00 | 0.00 | 0.00 | 35 | 1017.0 |
| 20260502150108 | 11 | 253 | 6.4 | 9.7 | 0.00 | 0.00 | 0.00 | 39 | 1017.0 |
| 20260502130457 | 4 | 227 | 1.6 | 3.2 | 0.00 | 0.00 | 0.00 | 66 | 1017.5 |
| 20260502123440 | 2 | 126 | 0.0 | 0.0 | 0.00 | 0.00 | 0.00 | 73 | 1017.6 |
| 20260502122937 | 1 | 126 | 0.0 | 0.0 | 0.00 | 0.00 | 0.00 | 73 | 1017.5 |
| 20260502122433 | 1 | 126 | 0.0 | 0.0 | 0.00 | 0.00 | 0.00 | 74 | 1017.5 |
| 20260502121931 | 0 | 126 | 0.0 | 0.0 | 0.00 | 0.00 | 0.00 | 75 | 1017.6 |
| 20260502121428 | 0 | 126 | 0.0 | 0.0 | 0.00 | 0.00 | 0.00 | 75 | 1017.5 |
| 20260502120926 | 0 | 126 | 0.0 | 0.0 | 0.00 | 0.00 | 0.00 | 76 | 1017.5 |
| 20260502120422 | 0 | 126 | 0.0 | 0.0 | 0.00 | 0.00 | 0.00 | 77 | 1017.6 |
| 20260502115919 | 0 | 126 | 0.0 | 0.0 | 0.00 | 0.00 | 0.00 | 77 | 1017.6 |
| 20260502115416 | 0 | 126 | 0.0 | 0.0 | 0.00 | 0.00 | 0.00 | 78 | 1017.6 |
| 20260502114912 | -1 | 126 | 0.0 | 0.0 | 0.00 | 0.00 | 0.00 | 79 | 1017.5 |
| 20260502114409 | -1 | 126 | 0.0 | 0.0 | 0.00 | 0.00 | 0.00 | 79 | 1017.6 |
| 20260502113906 | -1 | 126 | 0.0 | 0.0 | 0.00 | 0.00 | 0.00 | 79 | 1017.7 |
| 20260502113404 | -1 | 126 | 0.0 | 0.0 | 0.00 | 0.00 | 0.00 | 79 | 1017.5 |
| 20260502112902 | -1 | 126 | 0.0 | 0.0 | 0.00 | 0.00 | 0.00 | 79 | 1017.4 |
| 20260502112359 | -1 | 126 | 1.6 | 1.6 | 0.00 | 0.00 | 0.00 | 79 | 1017.4 |
| 20260502111856 | -1 | 126 | 0.0 | 1.6 | 0.00 | 0.00 | 0.00 | 78 | 1017.6 |
| 20260502111354 | -1 | 126 | 0.0 | 1.6 | 0.00 | 0.00 | 0.00 | 77 | 1017.4 |
| 20260502110851 | -1 | 126 | 0.0 | 1.6 | 0.00 | 0.00 | 0.00 | 77 | 1017.3 |
| 20260502110349 | -1 | 126 | 0.0 | 1.6 | 0.00 | 0.00 | 0.00 | 77 | 1017.5 |
| 20260502105846 | -1 | 126 | 0.0 | 1.6 | 0.00 | 0.00 | 0.00 | 76 | 1017.4 |
| 20260502105343 | -1 | 126 | 0.0 | 1.6 | 0.00 | 0.00 | 0.00 | 76 | 1017.4 |
| 20260502104841 | -1 | 126 | 1.6 | 1.6 | 0.00 | 0.00 | 0.00 | 74 | 1017.5 |
| 20260502104338 | -1 | 126 | 0.0 | 0.0 | 0.00 | 0.00 | 0.00 | 74 | 1017.5 |
| 20260502103835 | -1 | 126 | 1.6 | 1.6 | 0.00 | 0.00 | 0.00 | 75 | 1017.5 |
| 20260502103333 | -1 | 126 | 1.6 | 1.6 | 0.00 | 0.00 | 0.00 | 74 | 1017.6 |
| 20260502102830 | -1 | 126 | 0.0 | 1.6 | 0.00 | 0.00 | 0.00 | 75 | 1017.4 |
| 20260502102326 | -1 | 126 | 0.0 | 1.6 | 0.00 | 0.00 | 0.00 | 74 | 1017.4 |
| 20260502101824 | 0 | 126 | 0.0 | 0.0 | 0.00 | 0.00 | 0.00 | 75 | 1017.4 |
| 20260502101322 | 0 | 126 | 1.6 | 1.6 | 0.00 | 0.00 | 0.00 | 75 | 1017.3 |
| 20260502100820 | 0 | 126 | 1.6 | 1.6 | 0.00 | 0.00 | 0.00 | 76 | 1017.5 |
| 20260502100319 | 0 | 126 | 1.6 | 1.6 | 0.00 | 0.00 | 0.00 | 74 | 1017.5 |
| 20260502091253 | 1 | 126 | 1.6 | 1.6 | 0.00 | 0.00 | 0.00 | 66 | 1017.5 |
| 20260502090750 | 1 | 126 | 1.6 | 3.2 | 0.00 | 0.00 | 0.00 | 64 | 1017.5 |
| 20260502090247 | 1 | 126 | 3.2 | 3.2 | 0.00 | 0.00 | 0.00 | 64 | 1017.6 |
| 20260502071147 | 3 | 125 | 1.6 | 3.2 | 0.00 | 0.00 | 0.00 | 57 | 1018.0 |
| 20260502070645 | 3 | 125 | 3.2 | 3.2 | 0.00 | 0.00 | 0.00 | 56 | 1018.1 |
| 20260502070143 | 3 | 125 | 1.6 | 3.2 | 0.00 | 0.00 | 0.00 | 56 | 1017.9 |
| 20260502065641 | 3 | 125 | 1.6 | 3.2 | 0.00 | 0.00 | 0.00 | 58 | 1018.0 |
| 20260502065138 | 3 | 125 | 3.2 | 3.2 | 0.00 | 0.00 | 0.00 | 57 | 1018.0 |
| 20260502064637 | 3 | 125 | 1.6 | 3.2 | 0.00 | 0.00 | 0.00 | 57 | 1018.0 |
| 20260502064134 | 3 | 125 | 1.6 | 1.6 | 0.00 | 0.00 | 0.00 | 58 | 1018.2 |
| 20260502063632 | 3 | 125 | 1.6 | 3.2 | 0.00 | 0.00 | 0.00 | 56 | 1018.1 |
| 20260502063129 | 3 | 125 | 1.6 | 3.2 | 0.00 | 0.00 | 0.00 | 57 | 1018.1 |
| 20260502062626 | 3 | 125 | 3.2 | 3.2 | 0.00 | 0.00 | 0.00 | 58 | 1018.1 |
| 20260502062124 | 3 | 125 | 1.6 | 3.2 | 0.00 | 0.00 | 0.00 | 56 | 1018.1 |
| 20260502061622 | 3 | 125 | 1.6 | 1.6 | 0.00 | 0.00 | 0.00 | 57 | 1018.0 |
| 20260502061119 | 3 | 125 | 1.6 | 1.6 | 0.00 | 0.00 | 0.00 | 57 | 1018.2 |
| 20260502060619 | 3 | 125 | 1.6 | 3.2 | 0.00 | 0.00 | 0.00 | 57 | 1018.1 |
| 20260502060116 | 3 | 125 | 1.6 | 1.6 | 0.00 | 0.00 | 0.00 | 57 | 1018.3 |
| 20260502055614 | 3 | 125 | 1.6 | 3.2 | 0.00 | 0.00 | 0.00 | 56 | 1018.2 |
| 20260502055112 | 3 | 125 | 3.2 | 3.2 | 0.00 | 0.00 | 0.00 | 56 | 1018.0 |
| 20260502054610 | 3 | 125 | 1.6 | 3.2 | 0.00 | 0.00 | 0.00 | 56 | 1018.3 |
| 20260502054107 | 3 | 125 | 1.6 | 1.6 | 0.00 | 0.00 | 0.00 | 57 | 1018.2 |
| 20260502053604 | 3 | 125 | 1.6 | 3.2 | 0.00 | 0.00 | 0.00 | 59 | 1018.2 |
| 20260502053102 | 2 | 125 | 1.6 | 3.2 | 0.00 | 0.00 | 0.00 | 66 | 1018.3 |
| 20260502052600 | 2 | 125 | 1.6 | 1.6 | 0.00 | 0.00 | 0.00 | 68 | 1018.3 |
| 20260502052058 | 2 | 125 | 1.6 | 3.2 | 0.00 | 0.00 | 0.00 | 70 | 1018.1 |
| 20260502051556 | 2 | 125 | 0.0 | 0.0 | 0.00 | 0.00 | 0.00 | 69 | 1018.2 |
| 20260502051053 | 2 | 125 | 0.0 | 1.6 | 0.00 | 0.00 | 0.00 | 68 | 1018.1 |
| 20260502050549 | 2 | 125 | 1.6 | 1.6 | 0.00 | 0.00 | 0.00 | 68 | 1018.2 |
| 20260502050046 | 2 | 125 | 1.6 | 1.6 | 0.00 | 0.00 | 0.00 | 69 | 1018.2 |
| 20260502045543 | 2 | 125 | 1.6 | 1.6 | 0.00 | 0.00 | 0.00 | 68 | 1018.2 |
| 20260502045040 | 2 | 125 | 1.6 | 3.2 | 0.00 | 0.00 | 0.00 | 69 | 1018.2 |
| 20260502044536 | 2 | 125 | 0.0 | 0.0 | 0.00 | 0.00 | 0.00 | 70 | 1018.1 |
| 20260502044033 | 2 | 125 | 0.0 | 0.0 | 0.00 | 0.00 | 0.00 | 71 | 1018.1 |
| 20260502043531 | 2 | 125 | 0.0 | 0.0 | 0.00 | 0.00 | 0.00 | 71 | 1018.0 |
| 20260502043027 | 2 | 125 | 0.0 | 0.0 | 0.00 | 0.00 | 0.00 | 68 | 1018.2 |
| 20260502042522 | 2 | 125 | 1.6 | 3.2 | 0.00 | 0.00 | 0.00 | 70 | 1018.1 |
| 20260502042020 | 2 | 125 | 1.6 | 3.2 | 0.00 | 0.00 | 0.00 | 71 | 1018.1 |
| 20260502041517 | 2 | 125 | 1.6 | 3.2 | 0.00 | 0.00 | 0.00 | 70 | 1018.2 |
| 20260502041014 | 2 | 80 | 1.6 | 3.2 | 0.00 | 0.00 | 0.00 | 67 | 1018.1 |
| 20260502040511 | 2 | 79 | 1.6 | 3.2 | 0.00 | 0.00 | 0.00 | 65 | 1018.1 |
| 20260502040008 | 2 | 79 | 1.6 | 1.6 | 0.00 | 0.00 | 0.00 | 63 | 1018.2 |
| 20260502035503 | 3 | 79 | 1.6 | 1.6 | 0.00 | 0.00 | 0.00 | 62 | 1018.2 |
| 20260502035001 | 3 | 79 | 0.0 | 0.0 | 0.00 | 0.00 | 0.00 | 61 | 1018.3 |
| 20260502034459 | 3 | 79 | 0.0 | 0.0 | 0.00 | 0.00 | 0.00 | 62 | 1018.3 |
| 20260502033958 | 3 | 79 | 0.0 | 0.0 | 0.00 | 0.00 | 0.00 | 61 | 1018.3 |
| 20260502033455 | 3 | 79 | 0.0 | 0.0 | 0.00 | 0.00 | 0.00 | 59 | 1018.3 |
| 20260502032951 | 3 | 79 | 0.0 | 0.0 | 0.00 | 0.00 | 0.00 | 56 | 1018.2 |
| 20260502032448 | 3 | 79 | 0.0 | 0.0 | 0.00 | 0.00 | 0.00 | 56 | 1018.3 |
| 20260502031945 | 3 | 79 | 0.0 | 0.0 | 0.00 | 0.00 | 0.00 | 55 | 1018.1 |
| 20260502031443 | 4 | 79 | 0.0 | 0.0 | 0.00 | 0.00 | 0.00 | 54 | 1018.2 |
| 20260502030941 | 4 | 79 | 0.0 | 0.0 | 0.00 | 0.00 | 0.00 | 54 | 1018.3 |
| 20260502030439 | 4 | 79 | 0.0 | 1.6 | 0.00 | 0.00 | 0.00 | 57 | 1018.3 |
| 20260502025937 | 5 | 79 | 0.0 | 0.0 | 0.00 | 0.00 | 0.00 | 53 | 1018.2 |
| 20260502025433 | 5 | 79 | 0.0 | 1.6 | 0.00 | 0.00 | 0.00 | 53 | 1018.2 |
| 20260502024931 | 5 | 79 | 1.6 | 1.6 | 0.00 | 0.00 | 0.00 | 52 | 1018.2 |
| 20260502024430 | 5 | 79 | 0.0 | 1.6 | 0.00 | 0.00 | 0.00 | 50 | 1018.3 |
| 20260502023927 | 5 | 79 | 0.0 | 1.6 | 0.00 | 0.00 | 0.00 | 48 | 1018.3 |
| 20260502023424 | 6 | 79 | 0.0 | 1.6 | 0.00 | 0.00 | 0.00 | 47 | 1018.2 |
| 20260502022922 | 6 | 79 | 0.0 | 1.6 | 0.00 | 0.00 | 0.00 | 46 | 1018.2 |
| 20260502022418 | 6 | 79 | 0.0 | 1.6 | 0.00 | 0.00 | 0.00 | 45 | 1018.2 |
| 20260502021915 | 6 | 79 | 0.0 | 0.0 | 0.00 | 0.00 | 0.00 | 45 | 1018.0 |
| 20260502021412 | 6 | 79 | 0.0 | 0.0 | 0.00 | 0.00 | 0.00 | 46 | 1018.0 |
| 20260502020909 | 7 | 79 | 0.0 | 0.0 | 0.00 | 0.00 | 0.00 | 50 | 1017.9 |
| 20260502020408 | 7 | 79 | 0.0 | 1.6 | 0.00 | 0.00 | 0.00 | 47 | 1018.1 |
| 20260502015904 | 7 | 79 | 0.0 | 1.6 | 0.00 | 0.00 | 0.00 | 46 | 1017.9 |
| 20260502015401 | 7 | 79 | 0.0 | 1.6 | 0.00 | 0.00 | 0.00 | 45 | 1017.9 |
| 20260502014858 | 7 | 79 | 0.0 | 0.0 | 0.00 | 0.00 | 0.00 | 48 | 1017.8 |
| 20260502014355 | 7 | 79 | 0.0 | 0.0 | 0.00 | 0.00 | 0.00 | 43 | 1017.9 |
| 20260502013851 | 7 | 79 | 0.0 | 0.0 | 0.00 | 0.00 | 0.00 | 44 | 1017.8 |
| 20260502013347 | 7 | 79 | 0.0 | 0.0 | 0.00 | 0.00 | 0.00 | 43 | 1017.7 |
| 20260502012844 | 8 | 79 | 1.6 | 3.2 | 0.00 | 0.00 | 0.00 | 40 | 1017.6 |
| 20260502012342 | 8 | 30 | 0.0 | 1.6 | 0.00 | 0.00 | 0.00 | 42 | 1017.6 |
| 20260502011839 | 8 | 30 | 0.0 | 0.0 | 0.00 | 0.00 | 0.00 | 40 | 1017.6 |
| 20260502011334 | 8 | 30 | 0.0 | 0.0 | 0.00 | 0.00 | 0.00 | 38 | 1017.6 |
| 20260502010832 | 8 | 30 | 0.0 | 1.6 | 0.00 | 0.00 | 0.00 | 37 | 1017.5 |
| 20260502010328 | 8 | 30 | 0.0 | 0.0 | 0.00 | 0.00 | 0.00 | 37 | 1017.6 |